When you browse on this site, cookies collect data to enhance your experience and personalize the content and advertising you see.
Visit our Privacy Policy to learn more. By continuing to use the site, you agree to this use of cookies and data.
  • In Romania
  • List of Countries
  • For 7 days
  • Water Temperature
  • Satellite Maps
  • Weather Map
  • Weather Widgets
  • user-avatar
    Login

    Hourly Weather Lisburn

    Today, 23 January, Wednesday

    Time Temperature Precipitation Wind Pressure Humidity
    00:00 -1°C° 0 mm 4 mps 746 mmHg 82%
    01:00 -2°C° 0 mm 4 mps 746 mmHg 82%
    02:00 -2°C° 0 mm 4 mps 746 mmHg 82%
    03:00 -2°C° 0 mm 4 mps 746 mmHg 83%
    04:00 -1°C° 0 mm 3 mps 747 mmHg 83%
    05:00 -1°C° 0 mm 3 mps 747 mmHg 84%
    06:00 -1°C° 0 mm 3 mps 747 mmHg 84%
    07:00 -1°C° 0 mm 3 mps 748 mmHg 85%
    08:00 0°C° 0 mm 3 mps 748 mmHg 86%
    09:00 0°C° 0 mm 3 mps 749 mmHg 87%
    10:00 +1°C° 0 mm 3 mps 749 mmHg 84%
    11:00 +2°C° 0 mm 3 mps 749 mmHg 81%
    12:00 +3°C° 0 mm 3 mps 749 mmHg 77%
    13:00 +4°C° 0 mm 3 mps 749 mmHg 79%
    14:00 +4°C° 0 mm 3 mps 749 mmHg 80%
    15:00 +4°C° 0 mm 3 mps 749 mmHg 82%
    16:00 +4°C° 0 mm 3 mps 749 mmHg 86%
    17:00 +3°C° 0 mm 3 mps 749 mmHg 89%
    18:00 +2°C° 0 mm 3 mps 750 mmHg 93%
    19:00 +2°C° 0 mm 3 mps 750 mmHg 94%
    20:00 +2°C° 0 mm 3 mps 750 mmHg 95%
    21:00 +2°C° 0 mm 3 mps 750 mmHg 96%
    22:00 +2°C° 0 mm 3 mps 751 mmHg 96%
    23:00 +2°C° 0 mm 3 mps 751 mmHg 97%

    Tomorrow, 24 January, Thursday

    Time Temperature Precipitation Wind Pressure Humidity
    00:00 +2°C° 0 mm 3 mps 751 mmHg 97%
    01:00 +2°C° 0 mm 3 mps 751 mmHg 96%
    02:00 +2°C° 0 mm 3 mps 751 mmHg 96%
    03:00 +2°C° 0 mm 3 mps 752 mmHg 96%
    04:00 +2°C° 0 mm 3 mps 752 mmHg 94%
    05:00 +2°C° 0 mm 3 mps 752 mmHg 93%
    06:00 +2°C° 0 mm 3 mps 753 mmHg 92%
    07:00 +2°C° 0 mm 3 mps 753 mmHg 91%
    08:00 +3°C° 0 mm 2 mps 754 mmHg 90%
    09:00 +4°C° 0 mm 2 mps 754 mmHg 89%
    10:00 +4°C° 0.2 mm 2 mps 754 mmHg 89%
    11:00 +4°C° 0.2 mm 2 mps 754 mmHg 90%
    12:00 +6°C° 0.2 mm 1 mps 755 mmHg 91%
    13:00 +6°C° 0.2 mm 1 mps 755 mmHg 91%
    14:00 +5°C° 0.2 mm 1 mps 755 mmHg 92%
    15:00 +5°C° 0.2 mm 1 mps 755 mmHg 93%
    16:00 +4°C° 0.6 mm 2 mps 755 mmHg 94%
    17:00 +4°C° 0.6 mm 2 mps 755 mmHg 94%
    18:00 +4°C° 0.6 mm 2 mps 755 mmHg 95%
    19:00 +5°C° 0.3 mm 2 mps 755 mmHg 96%
    20:00 +5°C° 0.3 mm 2 mps 755 mmHg 96%
    21:00 +5°C° 0.3 mm 2 mps 756 mmHg 97%
    22:00 +6°C° 0.1 mm 2 mps 756 mmHg 97%
    23:00 +7°C° 0.1 mm 2 mps 756 mmHg 97%

    Day after tomorrow, 25 January, Friday

    Time Temperature Precipitation Wind Pressure Humidity
    00:00 +7°C° 0.1 mm 3 mps 756 mmHg 97%
    01:00 +8°C° 0.1 mm 3 mps 756 mmHg 97%
    02:00 +7°C° 0.1 mm 4 mps 756 mmHg 96%
    03:00 +8°C° 0.1 mm 4 mps 756 mmHg 96%
    04:00 +7°C° 0 mm 4 mps 756 mmHg 96%
    05:00 +7°C° 0 mm 4 mps 756 mmHg 95%
    06:00 +7°C° 0 mm 5 mps 756 mmHg 95%
    07:00 +7°C° 0 mm 4 mps 756 mmHg 95%
    08:00 +7°C° 0 mm 4 mps 756 mmHg 95%
    09:00 +9°C° 0 mm 3 mps 757 mmHg 96%
    10:00 +8°C° 0 mm 4 mps 757 mmHg 94%
    11:00 +9°C° 0 mm 5 mps 757 mmHg 93%
    12:00 +9°C° 0 mm 6 mps 757 mmHg 91%
    13:00 +9°C° 0 mm 6 mps 756 mmHg 91%
    14:00 +9°C° 0 mm 6 mps 756 mmHg 90%
    15:00 +9°C° 0 mm 6 mps 755 mmHg 90%
    16:00 +9°C° 0 mm 6 mps 755 mmHg 90%
    17:00 +9°C° 0 mm 7 mps 754 mmHg 90%
    18:00 +9°C° 0 mm 7 mps 753 mmHg 91%
    19:00 +9°C° 0.2 mm 7 mps 752 mmHg 91%
    20:00 +9°C° 0.2 mm 7 mps 751 mmHg 91%
    21:00 +9°C° 0.2 mm 7 mps 751 mmHg 92%
    22:00 +9°C° 0.7 mm 7 mps 750 mmHg 92%
    23:00 +9°C° 0.7 mm 7 mps 749 mmHg 92%

    26 January, Saturday

    Time Temperature Precipitation Wind Pressure Humidity
    00:00 +9°C° 0.7 mm 7 mps 748 mmHg 92%
    01:00 +6°C° 1.4 mm 7 mps 748 mmHg 90%
    02:00 +5°C° 1.4 mm 6 mps 748 mmHg 89%
    03:00 +3°C° 1.4 mm 6 mps 748 mmHg 88%
    04:00 +3°C° 0 mm 7 mps 748 mmHg 85%
    05:00 +2°C° 0 mm 7 mps 749 mmHg 82%
    06:00 0°C° 0 mm 7 mps 750 mmHg 79%
    07:00 +2°C° 0 mm 7 mps 750 mmHg 79%
    08:00 +2°C° 0 mm 7 mps 750 mmHg 79%
    09:00 +2°C° 0 mm 7 mps 751 mmHg 80%
    10:00 +1°C° 0.1 mm 8 mps 751 mmHg 77%
    11:00 +2°C° 0.1 mm 8 mps 751 mmHg 75%
    12:00 +4°C° 0.1 mm 8 mps 751 mmHg 73%
    13:00 +2°C° 0.1 mm 9 mps 752 mmHg 71%
    14:00 +2°C° 0.1 mm 10 mps 752 mmHg 69%
    15:00 +1°C° 0.1 mm 10 mps 752 mmHg 68%
    16:00 +1°C° 0.2 mm 10 mps 753 mmHg 67%
    17:00 +1°C° 0.2 mm 10 mps 753 mmHg 67%
    18:00 0°C° 0.2 mm 9 mps 754 mmHg 67%
    19:00 0°C° 0 mm 10 mps 754 mmHg 67%
    20:00 0°C° 0 mm 10 mps 754 mmHg 67%
    21:00 0°C° 0 mm 10 mps 754 mmHg 67%
    22:00 0°C° 0 mm 10 mps 755 mmHg 67%
    23:00 0°C° 0 mm 10 mps 755 mmHg 67%

    27 January, Sunday

    Time Temperature Precipitation Wind Pressure Humidity
    00:00 0°C° 0 mm 10 mps 755 mmHg 67%
    01:00 0°C° 0 mm 10 mps 755 mmHg 68%
    02:00 0°C° 0 mm 10 mps 755 mmHg 69%
    03:00 0°C° 0 mm 10 mps 755 mmHg 70%
    04:00 0°C° 0 mm 10 mps 756 mmHg 70%
    05:00 0°C° 0 mm 10 mps 756 mmHg 70%
    06:00 0°C° 0 mm 10 mps 756 mmHg 70%
    07:00 0°C° 0 mm 10 mps 757 mmHg 69%
    08:00 0°C° 0 mm 10 mps 757 mmHg 69%
    09:00 0°C° 0 mm 10 mps 757 mmHg 68%
    10:00 +1°C° 0 mm 10 mps 758 mmHg 67%
    11:00 +1°C° 0 mm 10 mps 758 mmHg 66%
    12:00 +2°C° 0 mm 10 mps 759 mmHg 65%
    13:00 +1°C° 0 mm 10 mps 759 mmHg 65%
    14:00 +1°C° 0 mm 9 mps 759 mmHg 65%
    15:00 +1°C° 0 mm 9 mps 759 mmHg 66%
    16:00 +1°C° 0 mm 8 mps 759 mmHg 67%
    17:00 0°C° 0 mm 7 mps 760 mmHg 69%
    18:00 0°C° 0 mm 7 mps 760 mmHg 70%
    19:00 +1°C° 0 mm 6 mps 761 mmHg 71%
    20:00 +1°C° 0 mm 6 mps 761 mmHg 72%
    21:00 +1°C° 0 mm 6 mps 761 mmHg 72%
    22:00 +1°C° 0 mm 6 mps 761 mmHg 73%
    23:00 -1°C° 0 mm 6 mps 762 mmHg 74%

    28 January, Monday

    Time Temperature Precipitation Wind Pressure Humidity
    00:00 -1°C° 0 mm 6 mps 762 mmHg 74%
    01:00 0°C° 0 mm 5 mps 762 mmHg 76%
    02:00 0°C° 0 mm 5 mps 762 mmHg 77%
    03:00 0°C° 0 mm 4 mps 762 mmHg 79%
    04:00 0°C° 0 mm 4 mps 762 mmHg 79%
    05:00 0°C° 0 mm 4 mps 762 mmHg 78%
    06:00 +1°C° 0 mm 4 mps 763 mmHg 78%
    07:00 +1°C° 0 mm 3 mps 763 mmHg 80%
    08:00 +1°C° 0 mm 3 mps 763 mmHg 82%
    09:00 +2°C° 0 mm 2 mps 763 mmHg 85%
    10:00 +3°C° 0 mm 2 mps 763 mmHg 82%
    11:00 +4°C° 0 mm 2 mps 763 mmHg 79%
    12:00 +5°C° 0 mm 2 mps 763 mmHg 76%
    13:00 +5°C° 0 mm 2 mps 763 mmHg 77%
    14:00 +5°C° 0 mm 2 mps 763 mmHg 78%
    15:00 +5°C° 0 mm 2 mps 762 mmHg 79%
    16:00 +5°C° 0.2 mm 2 mps 762 mmHg 82%
    17:00 +4°C° 0.2 mm 3 mps 762 mmHg 85%
    18:00 +3°C° 0.2 mm 3 mps 762 mmHg 88%
    19:00 +3°C° 0.3 mm 3 mps 762 mmHg 90%
    20:00 +3°C° 0.3 mm 3 mps 762 mmHg 93%
    21:00 +3°C° 0.3 mm 3 mps 762 mmHg 95%
    22:00 +4°C° 0 mm 3 mps 762 mmHg 95%
    23:00 +4°C° 0 mm 3 mps 762 mmHg 96%
    Show more